Location: D.A.R.C. Observatory
(36.7133°N, 120.8553°W)
Time: 03:50:43
(UTC-07:00)

Daily predictions for brighter satellites

Satellite Brightness Start Highest point End
(mag) Time Altitude Azimuth Time Altitude Azimuth Time Altitude Azimuth
CZ-2C R/B 4.0 00:06:47 43° NNE 00:06:47 43° NNE 00:10:21 10° N
Cosmos 1867 4.3 00:01:06 10° NW 00:05:09 49° NW 00:05:09 49° NW
Mayak 1.6 00:03:15 10° NE 00:03:28 11° NE 00:03:28 11° NE
Cosmos 2227 Rocket 3.1 00:13:22 10° N 00:17:54 43° NE 00:17:54 43° NE
Cosmos 2266 Rocket 4.4 00:22:06 56° NE 00:22:06 56° NE 00:27:06 10° NNE
Cosmos 2219 4.0 00:16:21 10° NNW 00:20:40 45° WNW 00:20:40 45° WNW
CZ-2C R/B 3.4 00:20:01 10° NNE 00:23:35 46° N 00:23:35 46° N
BREEZE-M DEB (TANK) 4.2 00:12:39 10° WNW 00:27:18 83° NNE 00:27:18 83° NNE
Cosmos 1980 Rocket 4.1 00:45:27 20° ENE 00:45:27 20° ENE 00:47:37 10° NE
Cosmos 1697 Rocket 3.6 01:12:39 45° NNE 01:12:39 45° NNE 01:16:28 10° NNE
Cosmos 2297 Rocket 3.1 01:08:05 10° NNW 01:11:50 43° NW 01:11:50 43° NW
SL-16 R/B 4.2 01:26:08 18° ENE 01:26:08 18° ENE 01:28:28 10° NE
Cosmos 2322 Rocket 4.0 01:35:01 22° ENE 01:35:01 22° ENE 01:37:58 10° NE
Mayak 1.3 01:38:42 10° NNW 01:40:07 18° NNW 01:40:07 18° NNW
USA 234 3.3 01:49:56 10° NE 01:55:43 67° E 01:55:43 67° E
Resurs 1-4 Rocket 4.5 01:59:14 10° ENE 02:01:17 12° E 02:01:28 12° E
Cosmos 1745 Rocket 4.1 02:02:15 68° NNW 02:02:15 68° NNW 02:07:36 10° N
Cosmos 2227 Rocket 4.3 01:58:17 10° NW 01:59:42 15° WNW 01:59:42 15° WNW
Cosmos 839 Rocket 4.1 02:04:58 68° NNW 02:04:58 68° NNW 02:10:38 10° NNE
ADEOS Rocket 3.7 02:12:48 10° NNE 02:18:30 40° E 02:18:30 40° E
NOSS 3-1 (A) 3.5 02:20:54 72° NNE 02:20:54 72° NNE 02:26:36 10° NNE
Cosmos 2263 Rocket 3.8 02:16:33 10° N 02:21:31 30° ENE 02:24:05 21° ESE
CZ-2D R/B 4.0 02:17:39 10° NE 02:21:39 20° E 02:22:07 20° E
Cosmos 2360 Rocket 3.7 02:25:56 26° E 02:25:56 26° E 02:30:23 10° NE
Cosmos 1980 Rocket 3.2 02:27:13 36° NW 02:27:13 36° NW 02:31:57 10° N
CZ-4C R/B 2.8 02:28:49 10° NW 02:36:10 78° WSW 02:36:57 71° S
ISS -0.4 02:56:45 10° N 02:58:23 13° NNE 03:00:01 10° NE
Meteor 1-21 4.2 02:55:07 10° NNW 03:00:14 68° WNW 03:00:14 68° WNW
Helios 1A Rocket 4.5 02:57:23 10° N 02:59:42 29° NNW 02:59:42 29° NNW
Meteor 1-4 Rocket 4.4 03:04:31 28° NE 03:04:31 28° NE 03:06:33 10° NNE
SL-16 R/B 2.6 03:08:00 49° WNW 03:08:07 49° WNW 03:13:37 10° N
ADEOS 4.3 03:05:14 10° NNE 03:10:13 44° E 03:11:07 40° SE
Cosmos 1302 Rocket 4.2 03:10:53 58° ESE 03:11:16 59° ESE 03:16:28 10° NNE
Cosmos 1709 Rocket 4.4 03:12:08 45° W 03:12:15 45° W 03:18:05 10° N
Cosmos 1606 Rocket 4.0 03:12:36 58° ENE 03:12:36 58° ENE 03:16:40 10° NNE
Meteor 2-9 Rocket 4.3 03:12:51 63° W 03:13:04 64° W 03:18:54 10° N
Cosmos 1110 Rocket 4.1 03:15:25 60° WNW 03:15:25 60° WNW 03:20:25 10° N
Cosmos 2322 Rocket 2.8 03:16:49 41° WNW 03:17:12 41° WNW 03:22:36 10° N
IRS-1D 3.5 03:13:12 10° NNE 03:18:08 67° ESE 03:18:33 64° SE
Spot 4 Rocket 4.0 03:14:06 10° NNE 03:19:16 74° ESE 03:19:49 67° SSE
SL-16 R/B 2.5 03:25:41 41° SSE 03:28:03 90° SW 03:34:22 10° NNW
Cosmos 1825 Rocket 3.6 03:33:37 10° NNW 03:37:40 66° WNW 03:37:40 66° WNW
USA 234 4.4 03:33:22 10° NNE 03:39:05 34° NNW 03:43:03 18° W
Cosmos 1758 Rocket 3.4 03:34:55 10° N 03:39:16 86° E 03:39:32 79° SSE
NOSS 2-3 (D) 3.6 03:38:57 70° SW 03:39:30 83° WNW 03:44:47 10° NNE
ADEOS II 4.4 03:37:14 10° NE 03:40:45 18° E 03:44:16 10° SE
Resurs 1-4 Rocket 2.1 03:36:20 10° N 03:41:34 69° WNW 03:42:32 56° SW
Cosmos 2327 Rocket 4.5 03:40:14 47° SSW 03:42:10 73° W 03:48:36 10° N
ARIANE 5 R/B 2.5 03:41:04 10° N 03:46:12 73° WNW 03:47:18 54° SW
Cosmos 2184 Rocket 4.0 03:44:55 46° SW 03:46:34 62° W 03:52:41 10° N
Cosmos 1271 Rocket 3.5 03:46:35 41° SE 03:47:25 49° E 03:51:17 10° NNE
Cosmos 2237 4.1 03:47:02 47° SSW 03:48:46 86° ESE 03:54:29 10° NNE
Cosmos 1184 Rocket 4.2 03:46:55 10° N 03:50:02 36° ENE 03:50:54 30° ESE
Cosmos 2228 2.9 03:50:41 66° S 03:51:17 88° E 03:55:34 10° N
UNKNOWN OBJECT B 2.9 03:48:37 10° NNE 03:52:27 68° E 03:53:00 58° SSE
Intelsat 5-1 Rocket 4.1 03:55:20 19° SSE 03:55:20 19° SSE 04:00:24 10° ESE
Cosmos 389 Rocket 3.9 03:55:19 27° SE 03:56:25 34° E 03:59:40 10° NNE
CZ-2D R/B 2.6 03:56:41 10° N 04:01:55 46° WNW 04:03:26 37° WSW
ADEOS Rocket 4.1 03:58:45 10° N 04:03:46 26° WNW 04:05:27 23° W
Cosmos 2263 Rocket 2.8 04:00:19 10° NW 04:05:25 35° WSW 04:05:42 34° WSW
ATLAS 2AS CENTAUR R/B 3.0 04:01:46 33° SW 04:05:43 79° WNW 04:13:53 10° NNE
Cosmos 44 3.0 04:03:46 10° NW 04:08:07 63° WSW 04:10:29 26° S
Aureole 2 Rocket 3.7 04:06:58 27° SSE 04:08:48 46° ESE 04:12:44 10° NNE
Cosmos 2360 Rocket 2.9 04:07:42 30° W 04:09:32 38° WNW 04:14:47 10° N
Cosmos 2058 Rocket 3.5 04:10:45 41° WSW 04:11:35 47° W 04:15:57 10° N
OAO 3 Rocket 3.1 04:10:18 40° WSW 04:11:57 72° S 04:16:50 10° E
COSMOS 2428 2.7 04:09:40 33° SSW 04:12:21 85° WNW 04:18:07 10° NNE
DELTA 2 R/B (1) 3.6 04:10:46 29° W 04:13:43 80° NNW 04:19:18 10° ENE
Cosmos 2219 Rocket 2.6 04:10:11 22° S 04:13:43 58° ESE 04:19:17 10° NNE
Chunghua 1 4.4 04:13:58 58° SSW 04:14:21 63° S 04:18:01 10° E
Intercosmos 24 3.9 04:13:16 35° S 04:14:45 79° E 04:19:23 10° N
Cosmos 1953 Rocket 4.2 04:11:31 10° NNW 04:15:36 36° W 04:16:00 35° WSW
Cosmos 2237 Rocket 3.7 04:12:02 10° SSE 04:16:56 32° ESE 04:21:51 10° NE
SEDSat Delta rocket 3.9 04:16:56 28° S 04:17:11 28° SSE 04:20:50 10° ESE
Cosmos 1486 Rocket 4.2 04:14:08 10° NNW 04:19:14 49° WSW 04:21:56 26° SSW
Nadezhda 3 Rocket 3.9 04:13:16 10° N 04:19:31 78° W 04:25:17 13° S
MOZ.5/SAFIR/RUBIN 5/SL-8 3.7 04:18:32 28° S 04:20:49 60° W 04:25:25 10° NNW
BREEZE-M DEB (TANK) 3.9 04:19:29 33° SSW 04:21:20 69° SE 04:33:32 10° NE
Cosmos 962 Rocket 4.4 04:18:43 21° S 04:22:56 82° W 04:29:05 10° N
Cosmos 1812 Rocket 3.9 04:20:51 19° S 04:23:54 64° E 04:28:13 10° NNE
Cosmos 1544 3.6 04:21:46 22° SSE 04:23:58 57° E 04:27:37 10° NNE
Cosmos 972 Rocket 4.0 04:23:15 32° SW 04:25:19 56° WNW 04:30:11 10° N
MOS 1 Rocket 4.0 04:21:18 10° N 04:25:22 34° WNW 04:26:36 29° WSW
Cosmos 1844 Rocket 3.0 04:20:34 10° NNW 04:26:15 70° ENE 04:31:53 10° SSE
Okean O Rocket 3.1 04:25:57 10° NNE 04:30:01 34° E 04:34:03 10° SSE
Cosmos 2333 Rocket 2.5 04:27:03 17° S 04:31:24 66° ESE 04:37:03 10° NNE
Cosmos 1354 Rocket 3.9 04:26:31 10° NNW 04:31:50 78° WSW 04:37:08 10° S
SeaSat 1 3.8 04:27:35 10° SE 04:32:12 42° ENE 04:36:49 10° N
Cosmos 1707 3.7 04:31:38 10° NNW 04:34:57 28° W 04:35:23 27° WSW
Meteor 2-5 Rocket 4.0 04:29:42 10° NNW 04:35:09 50° W 04:39:37 16° SSW
ISS -3.8 04:32:02 10° NW 04:35:18 81° NE 04:38:33 10° SE
Cosmos 1766 3.2 04:33:35 28° SSW 04:35:28 65° W 04:39:23 10° N
USA 161 1.6 04:33:19 17° SSE 04:35:32 79° ENE 04:38:31 10° N
Cosmos 2154 Rocket 4.5 04:37:09 22° SW 04:40:49 42° WNW 04:46:46 10° N
ATLAS 3B R/B 2.9 04:34:47 10° NNW 04:41:29 70° ENE 04:47:55 10° SE
Meteor 1-24 Rocket 3.6 04:37:47 10° NNW 04:43:11 71° W 04:48:45 10° S
Cosmos 1378 4.2 04:41:07 10° NNW 04:44:16 26° W 04:45:00 24° WSW
Cosmos 44 Rocket 4.4 04:46:24 10° WNW 04:49:57 21° WSW 04:50:59 20° SW
Cosmos 2278 Rocket 3.6 04:45:14 10° N 04:50:36 42° ENE 04:55:57 10° SE
NOSS 0 Rocket 4.0 04:45:23 13° SSW 04:51:00 80° ESE 04:57:14 10° NNE
BREEZE M DEB (TANK) 3.0 04:50:27 10° WNW 04:53:12 62° SW 05:00:12 10° SE
OPS 6432 4.5 04:52:01 22° SW 04:54:16 66° WNW 04:57:24 10° NNE
Tiangong 1 3.4 04:56:30 10° SSE 04:57:33 12° SE 04:58:36 10° ESE
Cosmos 968 Rocket 4.1 04:53:20 10° N 04:58:29 61° ENE 05:03:31 10° SSE
MOS 1-B 4.5 04:55:22 10° N 05:01:04 60° WNW 05:06:45 10° SSW
Cosmos 1607 4.2 04:55:57 10° NW 05:02:09 50° WSW 05:08:18 10° S
USA 238 DEB 4.0 04:55:59 10° NNW 05:03:07 81° ENE 05:10:17 10° SE
Cosmos 2366 rocket 4.0 04:57:03 10° S 05:03:12 88° W 05:09:26 10° N
USA 238 4.0 04:56:06 10° NNW 05:03:14 80° ENE 05:10:24 10° SE
SL-16 R/B 3.8 04:58:20 10° SSE 05:03:17 32° ESE 05:08:16 10° NE
ERBS 2.6 05:04:13 14° SSW 05:07:02 63° SE 05:10:27 10° NE
Cosmos 1674 3.3 05:03:41 10° N 05:07:30 59° E 05:11:18 10° SSE
DELTA 2 R/B(2) 2.7 05:07:03 25° WSW 05:07:52 86° NNW 05:09:59 10° ENE
Cosmos 1340 Rocket 3.9 05:06:08 10° NW 05:09:23 25° W 05:12:16 12° SW
Cosmos 1805 3.7 05:07:35 12° SSW 05:10:57 42° W 05:14:43 10° N
Landsat 4 3.8 05:07:45 10° SSE 05:11:29 80° ENE 05:15:13 10° N
Cosmos 1356 Rocket 3.3 05:08:12 10° NNW 05:12:11 63° W 05:16:07 10° S
SL-16 R/B 4.3 05:10:47 10° WSW 05:12:23 11° W 05:14:15 10° WNW
Cosmos 1844 3.7 05:08:51 10° NNW 05:14:22 60° WSW 05:19:55 10° S
Meteor PRIRODA 4.4 05:14:34 10° NNE 05:18:17 55° E 05:21:55 10° S
Meteor 2-16 Rocket 4.5 05:12:23 10° S 05:18:32 84° W 05:24:43 10° N
ADEOS II 2.4 05:15:39 10° N 05:20:42 48° WNW 05:25:43 10° SW
PSLV R/B 3.7 05:17:37 10° N 05:21:56 57° WNW 05:26:13 10° SSW
KORONAS-FOTON 4.5 05:18:19 10° N 05:22:13 61° E 05:26:06 10° SSE
Cosmos 2218 Rocket 4.2 05:16:19 10° SSW 05:22:24 54° W 05:28:37 10° N
Meteor 2-15 Rocket 4.5 05:20:07 10° N 05:26:16 74° W 05:32:22 10° S
Lacrosse 5 rocket 2.4 05:24:37 10° NNW 05:28:36 51° NE 05:32:49 10° ESE
Cosmos 1758 4.1 05:27:21 10° SW 05:31:01 34° WNW 05:34:43 10° NNW
Abrixas rocket 2.2 05:30:33 10° SW 05:33:52 85° NW 05:37:11 10° NE
Meteor 1-21 Rocket 4.3 05:28:09 10° NNW 05:33:54 74° W 05:39:44 10° S
ATLAS CENTAUR R/B 3.2 05:30:59 10° NNW 05:34:46 32° NE 05:36:48 10° ESE
Geosat 4.1 05:30:01 10° NNE 05:35:01 70° WNW 05:40:00 10° SW
